Location: Caucaguita
(10.3578°N, 66.8025°W)
Time: 03:45:23
(UTC+00:00)

ATLAS 2A CENTAUR R/B - Pass Details

Date: 18 November 2025
Orbit: 259 x 13096 km, 26.9° (Epoch: 09 December)

Event Time Altitude Azimuth Distance (km) Brightness Sun altitude
Rises 22:40:47 0° 266° (W) 10,855 10.2 -10.0°
Reaches altitude 10° 22:53:49 10° 276° (W) 6,990 8.5 -13.1°
Maximum altitude 23:07:27 27° 328° (NNW) 2,448 5.2 -16.3°
Enters shadow 23:11:41 13° 22° (NNE) 2,219 4.5 -17.3°
